Wind_Speed
23 24 24 24 23 22 21 20 19 19 19 19 21 21 22 22 22 22 23 23 23 23 23 24 24 25 25 24 23 23 22 22 22 21 21 20 19 19 17 16 15 11 11 16 21 23 26 26 26 28 28 28 29 29 28 27 26 24 21 19 17 16 16
24 24 24 23 22 21 20 20 20 19 19 20 21 22 22 23 23 23 24 24 24 24 24 24 24 25 25 24 23 23 23 23 23 22 22 21 20 22 22 20 18 16 13 13 17 22 26 25 24 28 30 29 28 29 30 30 30 29 27 26 24 23 22
24 24 23 22 21 21 21 20 20 20 20 21 22 23 24 24 24 25 25 25 26 25 25 25 25 25 25 24 24 23 23 23 24 24 24 22 20 20 22 22 22 20 18 16 15 19 24 25 23 26 30 30 29 29 29 30 31 31 30 29 27 25 24
23 23 22 21 21 22 21 21 20 20 21 21 22 24 25 25 25 26 27 27 28 27 27 26 26 26 26 25 25 25 24 24 24 25 26 26 24 22 20 20 21 22 22 19 17 18 22 25 25 27 30 31 30 29 29 29 31 31 31 31 28 26 25
23 22 22 21 21 22 21 21 21 21 21 21 22 23 23 24 24 25 26 27 28 28 28 28 28 29 28 27 26 26 25 24 24 23 24 26 27 26 24 21 20 22 22 21 19 18 20 23 24 27 30 31 30 30 29 28 29 30 31 31 30 28 28
22 22 21 21 21 21 21 21 21 22 22 22 22 22 23 25 25 26 26 26 27 27 28 29 30 30 29 29 29 28 27 26 25 24 23 24 24 26 26 24 24 23 22 22 20 19 19 21 22 25 28 28 27 28 28 27 28 31 31 32 32 31 29
21 20 20 20 20 21 21 22 22 22 23 22 23 23 24 26 26 27 27 28 28 28 29 30 31 31 31 31 31 31 30 29 28 28 27 26 25 24 25 26 25 24 24 23 22 20 19 19 21 24 26 27 25 25 28 28 27 28 31 32 32 31 30
21 19 19 20 21 21 21 22 22 23 23 24 24 25 26 27 27 28 28 28 29 29 29 31 32 32 33 33 34 34 33 33 31 30 30 29 26 25 25 26 25 24 24 23 22 22 21 20 21 22 23 24 23 22 24 26 26 26 27 28 28 29 28
21 20 20 21 21 22 22 22 23 23 22 24 25 26 26 27 28 29 29 30 30 29 30 31 32 33 34 34 35 35 35 34 33 32 32 31 29 27 25 24 24 24 24 23 21 21 21 21 21 21 21 20 20 22 24 27 26 23 24 25 26 28 28
22 22 22 22 22 23 23 24 25 25 24 25 26 27 28 29 30 31 32 32 32 30 31 31 32 33 34 34 35 35 34 33 32 32 33 33 32 31 29 25 22 21 22 22 20 20 21 20 18 19 20 19 21 26 28 29 26 25 26 25 23 26 30
22 22 23 23 23 24 25 26 26 25 25 26 26 27 28 29 31 31 32 34 34 32 32 32 33 33 33 34 34 34 34 33 32 32 32 32 32 32 32 30 26 23 22 20 18 18 19 18 16 20 21 20 21 24 26 27 27 26 26 22 16 17 24
22 23 22 22 23 24 25 26 26 25 26 27 26 26 27 28 30 30 30 32 33 34 33 32 33 33 33 33 34 33 34 34 34 33 32 32 31 32 33 33 32 30 26 23 20 17 17 17 18 21 24 23 22 22 21 23 24 24 24 22 18 16 22
22 22 21 21 22 23 25 25 25 24 25 27 27 26 26 28 29 29 30 31 32 33 33 32 32 32 32 33 33 32 33 34 35 35 33 32 31 31 32 33 35 35 34 31 27 24 22 23 22 23 25 26 24 22 22 21 22 24 25 23 22 24 29
21 21 21 21 21 23 25 25 23 23 24 26 26 25 27 29 29 29 29 30 31 32 33 32 31 31 32 33 32 31 32 32 33 34 33 33 34 34 33 33 34 36 37 37 35 32 30 29 28 27 28 29 26 23 23 22 20 22 23 25 28 31 33
19 20 20 21 21 23 25 24 22 22 25 25 25 26 27 29 30 30 30 28 28 29 31 31 31 31 33 33 32 32 32 32 32 32 32 32 34 36 36 36 37 38 39 39 39 37 34 33 33 31 31 33 30 26 27 28 27 27 25 24 26 28 28
18 19 21 22 22 23 25 23 21 22 24 24 25 26 25 23 24 23 23 26 26 26 27 28 29 30 32 32 33 32 32 30 30 30 31 31 33 35 35 37 40 40 38 38 39 39 35 33 33 32 32 33 32 30 32 31 30 30 27 22 18 17 21
19 21 23 24 23 23 24 24 21 21 23 23 24 23 20 19 21 19 15 17 21 23 24 26 27 29 30 32 32 33 32 29 27 29 31 31 33 33 32 35 39 38 35 35 38 41 40 36 34 35 36 35 34 34 34 31 29 28 26 20 13 10 14
22 23 22 22 22 22 23 25 22 20 21 22 22 20 18 19 19 17 16 15 13 14 18 21 24 27 29 31 31 31 31 30 27 29 31 32 32 30 31 35 36 33 33 34 34 37 40 40 39 38 39 38 36 36 37 34 31 29 25 19 12 10 11
21 22 22 21 22 21 22 24 21 18 18 20 20 17 17 18 18 15 14 15 14 13 13 14 17 21 24 28 30 29 29 28 28 29 33 33 30 28 32 36 33 30 30 31 31 33 36 39 39 39 40 40 39 38 39 37 34 32 27 21 16 14 10
20 22 22 21 21 21 21 21 19 16 17 19 18 16 15 17 18 16 14 13 13 14 14 14 16 16 16 19 24 27 27 26 26 28 32 33 31 31 35 35 29 28 29 29 29 30 31 34 36 38 38 39 38 37 36 35 32 31 29 23 19 18 14
20 21 22 21 20 20 19 18 16 15 16 17 17 15 15 15 17 17 15 13 12 14 15 15 16 17 16 15 17 21 24 24 25 26 27 32 35 37 37 31 26 26 27 27 27 26 26 28 30 32 34 35 35 34 33 31 30 30 29 26 22 20 17
19 19 20 20 19 19 18 15 13 13 15 17 16 15 15 15 15 15 15 14 13 13 15 16 16 17 17 17 17 18 18 20 24 25 22 26 35 38 33 28 26 25 24 25 26 24 23 24 25 27 29 30 31 32 32 31 31 31 31 30 28 26 22
18 17 18 19 19 18 17 14 12 12 14 16 16 15 15 15 14 13 15 16 14 14 16 17 16 16 18 18 19 19 17 15 16 17 15 16 25 33 32 29 26 24 23 23 23 22 21 22 23 24 26 27 29 31 31 31 31 31 31 30 30 30 29
16 14 15 16 17 18 17 14 11 12 14 15 16 17 16 15 15 14 14 15 16 15 16 17 16 17 18 18 18 17 15 13 11 11 11 12 14 22 29 30 27 25 24 22 21 20 20 21 22 24 26 28 30 30 30 29 28 28 29 28 27 28 29
15 15 14 14 15 18 17 13 11 12 13 14 16 17 16 16 16 16 15 15 16 15 15 16 15 16 15 15 14 12 11 9 8 7 9 10 10 12 20 28 28 25 22 21 20 19 19 21 23 26 28 30 29 27 26 26 26 26 26 25 25 25 26
16 16 15 13 15 17 14 11 11 13 14 15 17 17 17 17 17 17 16 16 16 15 14 14 13 12 11 11 10 9 7 5 4 4 5 6 6 6 10 19 24 24 22 21 20 20 21 23 26 27 28 27 25 25 26 26 26 26 25 24 24 24 24
16 16 14 14 14 13 10 10 13 14 15 18 19 19 19 18 18 18 18 18 18 15 12 11 10 9 9 9 8 7 5 4 3 3 4 5 4 4 3 5 13 19 21 20 20 20 22 25 26 24 24 24 23 25 27 27 25 24 24 24 23 22 22
17 18 18 16 12 9 8 10 13 14 16 18 19 20 20 18 18 20 22 21 18 12 8 7 7 7 8 8 6 5 4 5 5 6 7 8 7 6 4 2 2 7 11 13 15 17 18 20 21 21 23 25 25 26 28 27 26 25 24 24 22 20 20
20 18 14 10 7 7 9 11 12 14 17 18 18 18 17 17 19 22 19 13 9 7 5 4 4 5 6 6 7 7 8 8 8 8 9 9 9 9 8 6 5 3 1 2 6 10 13 14 15 17 19 21 23 26 28 26 25 25 24 23 22 22 20
15 10 6 6 6 7 9 11 14 16 16 16 16 15 15 17 19 16 10 6 5 5 2 2 5 7 8 8 9 9 10 10 10 10 10 10 10 10 10 9 8 8 6 4 3 4 7 9 11 12 13 14 16 21 24 24 24 25 24 22 22 21 20
7 7 7 8 8 8 9 11 13 14 14 14 14 13 14 16 15 10 7 6 5 1 4 6 8 9 8 8 9 9 9 9 10 10 11 11 10 9 10 10 9 9 8 6 5 4 4 5 7 10 11 11 12 14 16 19 22 23 22 22 22 21 19
8 8 8 7 7 8 9 10 11 12 12 12 12 12 13 12 10 8 5 4 1 5 8 8 9 9 9 8 9 9 9 9 10 11 11 10 10 10 10 10 9 8 8 7 7 6 6 6 7 8 9 10 11 12 13 15 18 20 21 22 22 21 20
8 9 8 7 6 7 8 9 9 9 9 10 11 11 10 7 6 6 3 2 5 8 9 8 8 8 8 8 8 9 10 10 10 11 10 10 9 10 10 9 8 8 8 8 8 7 7 7 8 8 10 10 11 11 13 14 17 19 21 20 19 19 19
8 8 8 7 6 6 9 9 8 8 9 10 10 11 8 4 1 3 4 5 8 9 8 7 7 7 7 7 8 9 10 10 11 11 11 10 10 9 9 8 9 9 9 9 9 9 8 8 9 9 10 11 11 11 12 14 16 18 20 19 18 18 18
8 7 7 6 6 7 9 9 7 8 9 10 11 10 5 1 2 4 8 9 10 10 9 8 7 7 7 7 8 8 9 10 10 11 12 12 10 10 9 8 9 11 10 9 9 9 9 9 10 10 10 11 11 11 12 13 15 17 20 20 20 19 19
7 6 5 4 5 7 9 9 8 9 10 12 13 10 5 6 9 10 11 11 11 10 9 8 7 7 7 7 7 8 9 9 9 10 12 11 10 10 8 8 10 11 10 9 8 8 9 9 9 10 10 11 12 12 12 13 15 17 20 21 21 21 20
Wind_Direction
297 297 297 296 293 289 286 283 280 278 276 275 273 271 269 268 266 264 263 263 261 260 259 259 260 261 263 265 265 267 270 270 270 269 267 265 263 262 261 259 257 260 270 272 275 280 283 287 293 293 291 292 290 286 288 292 292 290 290 289 286 283 278
297 298 297 294 290 286 283 281 279 277 274 273 272 271 269 267 266 265 263 263 262 261 260 260 259 260 262 263 264 265 266 268 269 270 269 266 261 258 256 254 254 258 265 271 272 276 280 284 289 289 288 288 290 289 289 292 292 290 289 288 288 287 282
297 297 295 291 286 283 281 280 278 276 273 271 271 270 269 267 265 264 262 261 260 260 259 258 258 259 260 261 263 264 265 266 266 265 266 266 264 260 256 252 251 253 259 267 268 269 275 281 284 285 286 287 288 288 290 290 288 288 289 289 289 286 281
295 295 293 288 283 281 280 278 277 275 273 271 270 269 269 268 265 263 261 260 259 259 258 258 257 258 259 259 260 262 264 265 264 263 261 262 262 262 261 257 252 250 253 260 264 262 266 273 278 280 283 286 287 285 285 286 285 285 286 287 285 281 276
295 293 290 285 282 279 277 277 276 275 273 272 270 268 267 267 265 264 262 261 260 259 259 258 257 258 258 257 257 258 260 261 261 261 259 259 259 259 261 261 257 254 253 255 260 263 264 269 273 277 278 279 281 282 282 281 280 280 280 282 282 277 272
294 292 288 283 281 279 276 276 274 273 272 271 269 268 266 265 265 264 264 262 261 261 259 258 257 258 257 255 254 254 255 255 255 257 260 259 258 257 258 259 258 257 257 258 260 263 266 268 269 270 271 271 271 274 276 278 277 276 274 275 277 274 270
292 289 285 282 280 278 277 276 274 272 270 268 267 267 267 267 267 266 265 264 263 261 260 258 257 256 255 253 252 251 252 251 251 252 256 258 259 258 256 255 257 258 258 259 262 264 264 267 266 261 261 265 267 267 268 269 271 271 269 268 268 267 264
289 286 283 281 279 279 277 276 273 270 268 269 269 268 268 268 268 267 266 265 265 262 260 258 257 255 253 252 251 250 250 250 249 249 251 252 254 255 254 252 252 254 256 256 259 261 261 262 263 260 257 260 261 260 260 257 255 259 262 263 263 262 261
288 286 283 280 279 278 277 274 272 269 268 270 272 271 271 271 270 269 268 266 265 263 260 259 257 255 254 253 253 252 251 250 248 247 247 248 247 248 250 251 249 248 250 251 252 254 255 256 256 255 254 252 247 246 249 250 248 252 259 263 266 266 264
290 288 285 283 282 282 280 277 276 273 270 268 269 270 271 271 271 270 269 268 265 262 260 260 258 257 257 255 254 253 249 246 245 244 245 246 245 243 243 246 247 246 243 242 241 241 243 246 247 249 249 248 246 245 244 245 246 249 256 262 267 269 268
291 289 288 286 286 286 284 283 282 279 274 272 270 269 269 268 267 266 264 265 264 261 259 260 260 259 258 255 253 250 246 243 243 243 243 244 243 242 240 239 240 243 243 241 240 236 232 232 239 248 250 255 260 254 242 237 237 240 246 250 253 262 266
292 290 290 289 288 287 286 286 287 283 278 277 276 274 272 269 267 263 259 257 259 259 258 257 259 260 258 256 254 251 248 245 243 242 242 243 243 242 241 238 237 238 239 241 245 247 241 236 241 250 254 258 267 266 252 240 236 236 239 241 239 242 253
293 292 292 291 289 289 289 290 292 290 285 282 281 281 279 275 271 265 259 255 254 256 255 254 255 256 258 258 256 253 250 248 246 243 242 243 243 244 243 241 239 238 237 238 241 245 246 245 246 250 255 257 262 268 267 252 239 237 238 237 236 239 246
294 293 294 293 292 292 293 295 297 297 291 286 286 286 284 283 279 272 265 259 255 253 253 253 252 253 257 259 256 252 250 248 247 245 242 241 241 241 241 241 240 239 238 237 238 239 241 244 246 248 254 258 259 264 269 266 256 248 241 238 241 245 248
293 292 294 295 295 295 295 298 302 301 294 290 290 289 288 290 287 278 267 260 256 253 253 254 252 252 257 260 257 255 253 250 247 245 241 239 239 239 239 239 238 238 238 238 239 240 241 243 246 248 252 256 259 262 266 270 271 267 259 250 248 248 247
289 291 294 298 298 296 296 301 307 306 299 295 294 295 299 307 309 297 275 260 254 252 252 254 253 252 255 258 259 260 258 251 246 243 239 237 239 240 239 240 240 238 237 238 240 242 243 244 246 248 250 254 260 264 267 268 267 266 264 258 248 241 238
292 294 296 298 299 297 298 303 311 312 305 300 300 306 321 332 331 330 315 279 260 253 252 253 253 253 254 256 259 263 261 253 243 239 238 238 239 239 239 242 244 241 238 239 240 241 242 244 247 249 252 255 259 261 263 262 258 257 256 252 240 227 230
296 297 297 297 297 298 297 300 310 316 310 306 309 320 340 342 333 338 347 334 303 276 265 262 260 257 254 255 260 264 264 258 244 235 235 237 237 237 238 241 243 241 239 240 240 240 240 241 244 248 251 255 257 259 260 258 255 253 251 245 237 229 228
295 296 299 298 298 299 297 299 310 320 314 311 317 328 341 341 334 335 345 346 337 321 305 294 285 274 262 258 260 263 264 261 248 235 232 234 232 232 239 243 240 237 236 237 236 236 236 236 239 244 249 254 257 259 260 261 260 256 247 239 235 234 228
292 293 297 300 301 302 302 303 309 315 313 312 318 328 335 336 334 333 336 339 336 327 319 315 312 306 289 276 270 264 260 260 255 244 234 229 226 230 240 244 240 235 235 234 232 231 230 230 234 239 244 250 255 257 259 260 260 255 245 237 233 231 230
292 292 296 302 304 304 307 308 304 306 313 315 316 321 328 331 332 330 330 332 329 323 315 310 312 315 313 309 296 276 262 260 264 262 245 228 227 236 242 242 239 237 235 232 230 229 228 228 232 236 241 247 252 255 256 257 256 254 248 242 235 230 230
294 293 295 301 305 306 308 308 300 303 314 317 314 315 318 321 324 325 325 325 321 317 314 309 311 313 312 312 309 295 280 269 267 271 263 240 235 240 239 233 234 237 233 228 228 227 227 228 231 236 242 246 250 254 256 256 254 252 249 246 242 237 233
294 292 293 298 305 310 312 306 301 309 316 316 313 312 313 315 317 319 322 318 310 309 313 313 314 314 310 308 305 301 299 293 280 279 283 261 242 237 230 223 225 227 223 223 224 222 224 228 231 236 242 245 249 253 255 256 254 250 250 251 250 246 242
290 289 289 292 299 307 308 303 305 318 320 317 315 313 312 314 315 315 316 312 307 306 310 311 312 311 308 307 307 302 300 304 303 295 293 287 263 242 229 219 217 218 216 216 219 220 223 228 231 235 240 243 247 251 255 257 258 255 254 256 256 252 248
286 285 285 286 292 300 301 302 313 325 325 321 319 317 314 313 314 314 312 309 306 304 305 307 308 308 306 308 314 315 310 310 315 308 293 292 294 267 236 220 214 214 212 212 216 218 222 229 233 236 240 244 249 253 257 259 260 259 259 257 254 251 248
284 285 283 283 289 295 298 307 321 327 328 327 324 320 317 315 314 313 310 307 305 302 305 312 314 309 308 310 316 323 327 322 314 312 302 298 305 299 252 224 214 209 208 210 215 218 224 232 238 241 245 249 252 254 256 256 255 254 253 250 246 243 242
280 282 283 284 290 294 302 317 326 327 327 327 323 318 316 316 316 314 310 309 308 305 305 313 313 304 302 307 311 317 330 349 354 355 358 355 351 353 322 234 213 208 207 211 216 221 228 236 241 244 247 249 249 249 251 251 248 246 245 243 240 236 236
280 284 287 288 293 306 315 319 323 324 322 321 318 315 317 319 317 312 308 304 302 301 299 302 305 307 310 313 320 331 350 17 29 34 37 33 28 28 26 15 217 206 207 212 218 224 231 237 240 243 245 246 245 246 248 247 242 239 239 239 233 225 225
281 288 296 301 312 330 328 321 318 315 313 314 314 315 318 320 314 311 311 307 297 294 303 314 334 356 1 5 16 22 27 32 33 36 42 44 41 40 39 35 36 38 6 232 228 231 235 239 241 243 246 245 243 243 245 244 239 233 233 231 223 216 219
281 300 335 350 343 335 323 314 311 310 310 313 315 316 318 317 313 316 332 343 314 303 322 40 50 43 36 31 29 27 27 26 25 26 30 35 39 41 37 33 31 25 11 353 314 269 256 254 254 255 257 257 253 247 241 236 232 231 227 220 213 212 217
315 348 355 346 340 334 321 309 308 311 314 315 317 322 322 318 319 332 352 343 317 329 81 76 65 55 43 31 25 21 16 15 16 17 19 21 25 32 32 27 19 14 10 5 356 337 309 289 278 271 268 267 267 261 246 231 226 227 224 218 213 212 214
353 357 344 337 337 331 325 320 317 319 322 324 326 327 322 322 336 354 344 302 205 102 82 70 64 58 45 31 25 18 10 8 9 8 9 10 9 10 15 16 10 4 6 10 8 357 343 329 311 296 287 276 268 267 259 241 228 223 222 221 218 215 213
357 354 345 343 339 333 334 334 329 330 335 336 336 334 326 327 2 19 360 202 131 95 76 69 65 55 42 32 25 16 11 8 4 359 359 0 357 355 359 3 3 358 357 359 358 351 345 339 327 315 307 297 281 271 264 251 234 224 221 220 217 213 211
344 350 351 350 349 351 351 348 348 356 357 352 352 353 340 302 271 49 59 93 95 79 65 61 54 44 34 26 20 16 12 8 2 356 352 349 347 347 352 356 357 354 350 346 342 339 338 337 334 327 316 306 297 285 270 257 240 224 217 214 213 210 207
332 347 359 358 359 4 4 4 11 16 15 16 15 10 354 250 148 65 55 62 66 61 55 51 42 32 25 17 13 12 10 7 2 357 351 347 341 338 343 353 354 348 344 340 335 332 333 331 330 328 321 310 299 288 276 264 248 229 217 213 211 208 203
331 348 17 36 28 15 11 19 29 30 31 34 32 29 48 78 68 55 48 47 47 45 45 44 37 30 25 17 9 8 7 6 2 355 351 349 343 334 336 346 345 338 336 338 333 328 329 328 325 325 325 318 303 289 279 272 259 239 222 215 213 209 202
Height
801 800 798 797 795 793 792 791 790 789 788 787 786 785 785 784 784 784 783 783 783 783 784 784 784 784 784 785 785 784 784 785 785 786 786 786 786 787 787 787 787 784 781 780 782 781 779 780 780 779 779 779 777 777 777 778 778 779 779 779 780 780 781
798 797 795 794 792 791 790 788 787 786 785 784 783 782 781 781 781 780 780 780 779 780 780 780 780 780 781 781 781 781 781 781 782 782 782 782 783 783 783 785 785 783 780 778 779 779 777 778 779 777 776 778 777 776 775 775 775 776 777 777 778 778 779
795 794 792 791 789 788 787 786 784 783 782 781 780 779 778 778 777 777 776 776 776 776 776 776 776 776 777 777 777 777 778 778 778 778 778 778 779 779 779 781 782 781 779 777 777 778 776 775 777 776 774 775 775 775 774 773 773 773 774 775 775 776 776
791 790 789 788 786 785 784 783 781 780 779 778 777 776 775 774 774 773 773 772 772 772 773 772 772 772 773 774 773 773 774 774 775 775 774 774 775 776 776 777 778 778 777 776 775 775 775 774 774 774 772 772 772 772 772 772 771 771 771 772 773 774 774
788 787 786 784 783 782 781 779 778 777 776 775 773 772 771 770 770 769 769 768 768 768 768 768 768 768 769 769 769 769 770 770 771 771 771 771 771 772 772 773 774 774 774 773 772 772 773 773 772 771 770 771 771 769 769 769 769 769 769 769 770 770 771
784 783 782 781 780 779 777 776 775 774 772 771 770 769 768 767 766 765 765 764 764 764 764 764 763 763 764 765 764 765 765 766 767 767 767 767 767 768 769 769 770 770 771 770 769 769 770 770 771 770 768 768 769 768 766 766 766 766 767 767 767 767 768
780 780 778 777 776 775 774 773 771 770 768 767 766 765 764 763 762 762 761 760 760 759 759 759 759 759 759 760 760 760 761 762 762 763 763 764 764 765 765 765 765 766 767 766 766 766 767 767 768 768 766 766 767 766 764 764 764 763 763 764 764 764 765
777 776 774 773 772 771 771 769 767 766 765 763 762 761 761 760 759 758 757 756 755 755 755 754 754 754 754 754 754 755 756 757 758 759 759 760 761 762 761 761 762 762 763 762 762 762 763 765 765 764 762 762 763 763 762 762 762 760 760 761 761 761 762
773 772 771 770 768 767 767 765 763 762 761 760 758 757 757 756 755 753 752 751 750 750 749 749 749 748 748 749 749 750 751 752 753 754 754 755 756 758 758 758 758 758 758 759 759 759 761 762 761 759 758 758 759 759 759 759 760 759 758 758 757 757 758
769 768 767 765 764 763 762 761 759 758 757 756 755 754 753 751 750 749 747 746 746 745 744 744 743 743 743 743 744 745 746 747 748 749 749 750 751 752 754 754 754 754 754 755 755 755 757 757 756 754 754 755 755 756 755 756 757 756 755 756 755 753 753
765 764 763 762 760 759 757 756 754 754 753 752 751 751 750 748 746 745 743 741 741 740 739 739 738 738 738 739 739 740 741 742 743 744 744 745 746 747 748 749 750 750 750 750 750 750 751 751 750 750 751 752 752 752 752 751 752 752 752 753 753 751 749
762 760 759 758 757 755 753 751 750 750 749 748 747 746 746 744 742 740 739 737 735 734 734 734 734 733 733 733 734 735 736 736 737 739 739 740 741 742 743 744 745 746 747 747 747 746 746 746 746 747 748 749 749 749 749 748 748 749 749 749 750 749 746
758 757 755 755 753 751 749 747 746 746 745 743 743 742 741 739 737 735 733 732 730 729 729 729 729 729 729 728 729 730 731 731 732 733 734 736 737 737 738 739 739 741 742 743 743 743 742 743 744 744 744 745 747 747 746 745 745 745 745 745 746 744 743
754 753 752 751 749 747 746 744 742 742 741 740 739 738 736 734 732 729 727 726 725 725 724 724 725 725 724 724 725 725 725 726 727 728 729 731 732 732 732 733 734 735 736 737 738 738 738 739 741 741 741 742 744 744 743 742 742 741 741 741 740 739 739
751 750 749 748 746 744 742 740 739 738 737 736 735 734 732 729 726 723 721 720 720 720 720 720 721 721 720 720 720 720 721 721 722 723 724 725 725 726 727 728 728 729 730 731 732 732 733 735 737 738 738 738 739 740 740 739 739 738 738 737 736 736 737
748 747 746 744 743 741 739 736 736 735 734 733 732 729 727 725 721 717 715 715 715 715 716 716 716 717 716 716 716 715 716 717 718 719 719 720 720 720 721 721 721 723 725 726 727 728 729 731 732 733 734 734 735 736 736 736 736 735 734 734 733 733 733
746 744 743 741 739 738 736 733 732 732 730 730 728 726 724 721 718 715 713 711 711 712 712 712 712 713 712 712 711 711 712 713 714 714 714 714 715 715 716 715 715 717 720 721 723 724 725 727 728 729 729 730 731 732 733 733 732 730 730 730 729 729 729
742 741 740 738 736 735 734 731 729 729 728 727 726 723 721 719 717 714 712 710 709 709 709 709 709 709 708 708 707 707 707 709 710 710 710 709 710 711 710 709 709 712 714 716 718 719 721 723 724 724 725 726 727 728 728 729 727 726 727 727 725 725 725
740 738 736 735 734 732 731 729 727 726 725 725 723 721 720 718 716 713 711 710 709 708 708 707 706 705 705 704 703 703 703 704 705 705 704 704 706 706 704 702 704 708 709 711 713 714 715 717 719 720 721 721 722 723 723 724 724 723 723 723 722 722 723
738 735 733 732 731 729 728 727 725 724 724 723 721 720 719 717 714 712 711 709 709 707 706 705 704 703 702 700 699 699 699 699 700 700 699 700 701 699 696 696 701 703 704 706 708 709 710 712 713 716 717 716 717 718 718 719 719 719 719 719 719 720 720
735 733 731 729 728 727 725 724 724 723 723 721 720 718 717 715 713 711 710 708 707 706 705 703 702 700 699 698 697 696 695 695 695 694 694 694 693 691 691 694 698 699 700 702 704 705 707 708 709 711 712 712 712 713 713 715 715 715 715 715 716 717 717
732 731 729 727 726 725 723 722 722 722 721 719 718 717 715 714 712 710 708 707 705 704 703 701 700 698 697 696 694 693 692 691 690 690 689 688 687 686 689 692 694 695 697 699 700 702 703 704 705 706 707 707 707 707 708 710 710 711 711 712 713 714 714
729 728 727 725 723 722 721 721 720 720 719 717 716 715 713 712 710 708 707 705 703 702 701 699 697 696 695 694 692 690 689 688 687 686 685 684 684 684 686 688 690 692 694 695 696 698 699 700 701 702 702 702 702 703 703 705 705 706 707 708 709 710 711
726 726 725 723 721 720 719 719 718 717 717 716 714 713 711 709 708 706 705 703 701 700 698 696 695 694 693 691 690 688 687 686 685 684 683 682 682 682 683 685 686 688 690 691 692 694 694 695 696 697 697 697 697 698 700 701 702 703 704 705 706 707 707
724 723 722 721 720 718 717 717 716 715 714 713 712 710 708 707 705 704 702 701 699 697 696 694 693 692 691 689 688 686 685 684 683 682 681 680 680 680 680 681 682 684 686 687 689 689 690 691 692 692 693 693 694 696 697 698 699 699 700 702 703 703 704
722 721 720 719 717 716 715 714 714 712 712 711 709 708 706 704 703 701 699 698 696 695 694 692 691 690 689 688 686 685 684 683 682 681 680 679 678 678 678 678 679 680 682 683 685 686 687 687 688 689 690 691 693 694 694 694 695 696 697 698 699 699 700
720 718 717 716 715 714 713 712 711 710 709 708 707 705 704 702 700 698 697 695 693 692 691 690 689 688 687 686 685 684 683 682 681 680 680 679 678 677 677 676 676 677 679 680 682 683 684 684 685 687 688 689 690 690 689 690 692 692 693 694 695 696 696
717 716 715 714 713 712 711 710 709 708 707 706 705 703 701 700 698 696 694 692 690 689 689 688 687 686 685 685 684 683 682 681 680 680 679 678 678 677 676 676 676 676 677 678 679 680 681 682 683 684 685 685 685 685 685 686 688 689 689 690 691 692 693
715 714 713 713 712 711 710 709 707 707 706 704 703 701 700 698 697 694 691 689 688 688 687 686 685 685 684 684 683 682 681 681 680 680 679 679 678 678 677 676 676 676 676 677 677 678 679 680 680 681 681 681 681 681 681 682 684 684 685 687 688 688 689
714 713 712 711 710 710 709 708 706 705 704 702 701 700 698 697 695 692 690 688 687 687 686 685 685 685 685 684 684 683 682 681 681 680 679 679 679 678 678 677 677 677 677 676 677 677 677 677 678 678 678 678 678 677 677 678 679 680 682 683 684 685 686
712 711 710 710 709 708 708 707 705 704 702 700 699 698 697 695 693 691 690 688 687 686 685 685 685 685 685 685 684 684 683 682 681 681 679 679 678 678 678 678 677 677 677 676 676 676 676 676 676 676 676 676 675 675 675 675 676 677 678 679 680 681 682
711 710 709 709 708 707 706 705 704 702 700 699 698 696 695 694 692 690 689 688 687 686 686 686 686 685 686 686 685 684 684 683 682 681 680 679 679 678 678 678 677 677 677 676 676 675 675 675 674 674 674 674 673 673 673 673 673 674 675 676 677 677 678
710 709 708 707 707 706 705 703 702 701 699 697 696 695 694 693 692 690 688 687 686 686 686 686 686 686 686 686 686 685 684 683 682 682 680 680 679 678 678 677 677 676 676 675 675 674 674 674 673 673 672 672 671 672 672 671 671 671 672 673 674 675 676
709 708 707 706 705 704 704 702 701 700 698 696 695 694 692 692 691 689 688 687 687 687 687 687 687 687 687 686 686 685 684 684 683 682 681 680 679 678 677 677 676 675 674 674 673 673 672 672 671 671 670 670 669 669 669 669 668 669 669 670 671 672 673
707 706 705 704 703 703 702 701 699 699 697 695 694 692 690 690 689 689 689 688 688 688 688 688 688 687 687 687 686 685 684 684 683 682 681 680 679 678 677 676 675 674 674 673 672 671 671 670 670 669 669 668 668 668 667 667 666 665 666 666 667 669 670
706 705 704 703 702 701 701 700 699 697 696 695 693 691 690 690 690 690 690 689 689 689 689 688 688 688 687 687 686 685 684 684 683 682 681 680 679 678 677 676 675 674 673 672 671 671 670 669 669 668 668 667 666 666 665 664 663 663 662 663 664 665 666